Weather History for CWLY - May, 2013

Change the Weather History Date:

Monday, May 6, 2013

  Actual Average Record
Temperature  
Mean Temperature 68 °F -  
Max Temperature 91 °F 63 °F - (-1)
Min Temperature 45 °F 42 °F - (-1)
Cooling Degree Days 3    
Growing Degree Days 18 (Base 50)    
Moisture  
Dew Point 42 °F    
Average Humidity 40    
Maximum Humidity 76    
Minimum Humidity 10    
Precipitation  
Precipitation 0.02 in - - ()
Sea Level Pressure  
Sea Level Pressure 29.81 in    
Wind  
Wind Speed 5 mph ()    
Max Wind Speed 18 mph    
Max Gust Speed 30 mph    
Visibility 9.0 miles    
Events      
Averages and records for this station are not official NWS values.
T = Trace of Precipitation, MM = Missing Value Source: Averaged Metar Reports

Daily Weather History Graph

Daily Weather History Graph

Search for Another Location

Airport or City:

Trip Planner

Search our weather history database for the weather conditions in past years. The results will help you decide how hot, cold, wet, or windy it might be!

Date:

Astronomy

May. 06, 2013 Rise Set
Actual Time 5:32 AM PDT 8:34 PM PDT
Civil Twilight 4:54 AM PDT 9:12 PM PDT
Nautical Twilight 4:05 AM PDT 10:01 PM PDT
Astronomical Twilight 3:04 AM PDT 11:04 PM PDT
Moon 3:56 AM PDT (5/6) 5:23 PM PDT (5/6)
Length of Visible Light 16h 17m
Length of Day
15h 01m
Waning Crescent, 10% of the Moon is Illuminated
May 6
Waning Crescent
May 9
New
May 17
First Quarter
May 24
Full
May 31
Last Quarter

Hourly Weather History & Observations

Time (PDT) Temp. Dew Point Humidity Pressure Visibility Wind Dir Wind Speed Gust Speed Precip Events Conditions
12:00 AM 59.0 °F 42.8 °F 55% 29.89 in 9.0 mi SE 3.5 mph - N/A   Clear
1:00 AM 57.2 °F 42.8 °F 59% 29.90 in 9.0 mi SSE 4.6 mph - N/A   Clear
2:00 AM 56 °F 42 °F 48% 29.91 in 9 mi SSE 4.6 mph - -  
2:00 AM 55.4 °F 41.0 °F 58% 29.91 in 9.0 mi SSE 4.6 mph - N/A   Clear
3:00 AM 53.6 °F 41.0 °F 62% 29.91 in 9.0 mi SSE 4.6 mph - N/A   Clear
4:00 AM 51.8 °F 41.0 °F 67% 29.93 in 9.0 mi SSE 2.3 mph - N/A   Clear
5:00 AM 49 °F 42 °F 67% 29.94 in 9 mi Calm Calm - -  
5:00 AM 50.0 °F 41.0 °F 71% 29.94 in 9.0 mi Calm Calm - N/A   Clear
6:00 AM 48.2 °F 41.0 °F 76% 29.95 in 9.0 mi Calm Calm - N/A   Clear
7:00 AM 48.2 °F 41.0 °F 76% 29.95 in 9.0 mi SSE 4.6 mph - N/A   Clear
8:00 AM 51 °F 42 °F 64% 29.94 in 9 mi South 3.5 mph - -  
8:00 AM 51.8 °F 42.8 °F 71% 29.94 in 9.0 mi South 4.6 mph - N/A   Clear
9:00 AM 59.0 °F 41.0 °F 51% 29.93 in 9.0 mi South 8.1 mph - N/A   Clear
10:00 AM 64.4 °F 41.0 °F 42% 29.90 in 9.0 mi SSE 3.5 mph - N/A   Clear
11:00 AM 70 °F 42 °F 25% 29.86 in 9 mi South 3.5 mph - -  
11:00 AM 69.8 °F 42.8 °F 38% 29.86 in 9.0 mi South 2.3 mph - N/A   Clear
12:00 PM 75.2 °F 41.0 °F 29% 29.82 in 9.0 mi SSW 2.3 mph - N/A   Clear
1:00 PM 77.0 °F 42.8 °F 29% 29.78 in 9.0 mi WNW 2.3 mph - N/A   Clear
2:00 PM 83 °F 46 °F 18% 29.74 in 9 mi Calm Calm - -  
2:00 PM 82.4 °F 46.4 °F 28% 29.74 in 9.0 mi Calm Calm - N/A   Clear
3:00 PM 89.6 °F 44.6 °F 21% 29.70 in 9.0 mi South 9.2 mph - N/A   Clear
4:00 PM 91.4 °F 41.0 °F 17% 29.67 in 9.0 mi SSW 13.8 mph 20.7 mph N/A   Clear
5:00 PM 90 °F 40 °F 10% 29.66 in 9 mi South 13.8 mph - -  
5:00 PM 91.4 °F 41.0 °F 17% 29.66 in 9.0 mi South 15.0 mph 20.7 mph N/A   Clear
6:00 PM 87.8 °F 39.2 °F 18% 29.66 in 9.0 mi South 11.5 mph 17.3 mph N/A   Clear
7:00 PM 80.6 °F 39.2 °F 23% 29.67 in 9.0 mi South 11.5 mph - N/A   Clear
8:00 PM 76 °F 41 °F 18% 29.68 in 9 mi South 10.4 mph - -  
8:00 PM 75.2 °F 41.0 °F 29% 29.68 in 9.0 mi SSW 10.4 mph - N/A   Clear
9:00 PM 77.0 °F 39.2 °F 26% 29.70 in 9.0 mi SSW 12.7 mph 23.0 mph N/A   Clear
10:00 PM 75.2 °F 39.2 °F 27% 29.73 in 9.0 mi South 18.4 mph 29.9 mph N/A   Clear
11:00 PM 72 °F 40 °F 20% 29.75 in 9 mi SSE 17.3 mph - -  
11:00 PM 71.6 °F 39.2 °F 31% 29.75 in 9.0 mi SSE 15.0 mph 27.6 mph N/A   Clear